| time (UTC) | temp F | wind direction | speed knots | gust knots | rain 1hr in | rain 24hr in | rain mn in | humidity % | barometer mb |
| 20260505124926 | 60 | 202 | 6.1 | 7.8 | 0.00 | 0.00 | 0.00 | 62 | 1014.2 |
| 20260505124423 | 62 | 154 | 3.5 | 9.6 | 0.00 | 0.00 | 0.00 | 60 | 1014.2 |
| 20260505123919 | 61 | 190 | 2.6 | 7.0 | 0.00 | 0.00 | 0.00 | 62 | 1014.3 |
| 20260505123416 | 61 | 127 | 4.3 | 7.8 | 0.00 | 0.00 | 0.00 | 59 | 1014.4 |
| 20260505122911 | 60 | 203 | 1.7 | 7.8 | 0.00 | 0.00 | 0.00 | 62 | 1014.5 |
| 20260505122409 | 60 | 205 | 1.7 | 3.5 | 0.00 | 0.00 | 0.00 | 63 | 1014.3 |
| 20260505121906 | 60 | 205 | 3.5 | 8.7 | 0.00 | 0.00 | 0.00 | 64 | 1014.5 |
| 20260505121403 | 59 | 210 | 1.7 | 7.8 | 0.00 | 0.00 | 0.00 | 66 | 1014.4 |
| 20260505120858 | 59 | 174 | 5.2 | 7.8 | 0.00 | 0.00 | 0.00 | 62 | 1014.6 |
| 20260505120355 | 59 | 158 | 0.9 | 12.2 | 0.00 | 0.00 | 0.00 | 65 | 1014.5 |
| 20260505115854 | 60 | 241 | 5.2 | 7.0 | 0.00 | 0.00 | 0.00 | 64 | 1014.5 |
| 20260505115351 | 60 | 236 | 2.6 | 5.2 | 0.00 | 0.00 | 0.00 | 64 | 1014.7 |
| 20260505114849 | 59 | 190 | 3.5 | 7.8 | 0.00 | 0.00 | 0.00 | 62 | 1014.7 |
| 20260505114345 | 59 | 63 | 1.7 | 3.5 | 0.00 | 0.00 | 0.00 | 64 | 1014.6 |
| 20260505113841 | 59 | 231 | 5.2 | 6.1 | 0.00 | 0.00 | 0.00 | 63 | 1014.3 |
| 20260505113338 | 59 | 215 | 5.2 | 13.9 | 0.00 | 0.00 | 0.00 | 63 | 1014.6 |
| 20260505112834 | 59 | 172 | 3.5 | 12.2 | 0.00 | 0.00 | 0.00 | 63 | 1014.6 |
| 20260505112332 | 58 | 205 | 3.5 | 9.6 | 0.00 | 0.00 | 0.00 | 65 | 1014.6 |
| 20260505111827 | 58 | 173 | 7.8 | 8.7 | 0.00 | 0.00 | 0.00 | 64 | 1014.4 |
| 20260505111323 | 58 | 218 | 0.9 | 3.5 | 0.00 | 0.00 | 0.00 | 66 | 1014.5 |
| 20260505110819 | 58 | 202 | 2.6 | 5.2 | 0.00 | 0.00 | 0.00 | 65 | 1014.4 |
| 20260505110317 | 58 | 175 | 5.2 | 11.3 | 0.00 | 0.00 | 0.00 | 64 | 1014.5 |
| 20260505101751 | 57 | 184 | 1.7 | 3.5 | 0.00 | 0.00 | 0.00 | 67 | 1013.7 |
| 20260505101247 | 57 | 176 | 1.7 | 11.3 | 0.00 | 0.00 | 0.00 | 66 | 1013.3 |
| 20260505100743 | 57 | 255 | 1.7 | 5.2 | 0.00 | 0.00 | 0.00 | 65 | 1013.4 |
| 20260505100240 | 57 | 327 | 3.5 | 13.0 | 0.00 | 0.00 | 0.00 | 64 | 1013.3 |
| 20260505095735 | 57 | 223 | 2.6 | 7.0 | 0.00 | 0.00 | 0.00 | 65 | 1013.1 |
| 20260505095234 | 57 | 228 | 6.1 | 13.9 | 0.00 | 0.00 | 0.00 | 66 | 1013.3 |
| 20260505094729 | 57 | 176 | 2.6 | 2.6 | 0.00 | 0.00 | 0.00 | 68 | 1013.3 |
| 20260505094225 | 57 | 176 | 3.5 | 3.5 | 0.00 | 0.00 | 0.00 | 67 | 1013.2 |
| 20260505093721 | 57 | 80 | 3.5 | 5.2 | 0.00 | 0.00 | 0.00 | 66 | 1013.2 |
| 20260505093219 | 57 | 173 | 2.6 | 5.2 | 0.00 | 0.00 | 0.00 | 65 | 1013.2 |
| 20260505092716 | 57 | 227 | 1.7 | 7.8 | 0.00 | 0.00 | 0.00 | 67 | 1013.1 |
| 20260505092215 | 57 | 148 | 3.5 | 3.5 | 0.00 | 0.00 | 0.00 | 66 | 1013.1 |
| 20260505091711 | 57 | 174 | 3.5 | 5.2 | 0.00 | 0.00 | 0.00 | 66 | 1013.1 |
| 20260505091209 | 57 | 141 | 3.5 | 6.1 | 0.00 | 0.00 | 0.00 | 63 | 1013.3 |
| 20260505090707 | 57 | 101 | 2.6 | 6.1 | 0.00 | 0.00 | 0.00 | 64 | 1013.3 |
| 20260505090205 | 57 | 223 | 1.7 | 6.1 | 0.00 | 0.00 | 0.00 | 64 | 1013.1 |
| 20260505085702 | 57 | 227 | 3.5 | 5.2 | 0.00 | 0.00 | 0.00 | 64 | 1013.0 |
| 20260505085200 | 57 | 185 | 3.5 | 7.0 | 0.00 | 0.00 | 0.00 | 63 | 1012.8 |
| 20260505084657 | 57 | 154 | 3.5 | 6.1 | 0.00 | 0.00 | 0.00 | 64 | 1013.1 |
| 20260505084156 | 57 | 210 | 5.2 | 7.8 | 0.00 | 0.00 | 0.00 | 64 | 1012.9 |
| 20260505083653 | 57 | 228 | 1.7 | 5.2 | 0.00 | 0.00 | 0.00 | 63 | 1013.0 |
| 20260505083149 | 57 | 176 | 3.5 | 6.1 | 0.00 | 0.00 | 0.00 | 64 | 1012.7 |
| 20260505082645 | 58 | 132 | 3.5 | 3.5 | 0.00 | 0.00 | 0.00 | 65 | 1012.9 |
| 20260505082142 | 57 | 114 | 2.6 | 3.5 | 0.00 | 0.00 | 0.00 | 66 | 1012.9 |
| 20260505081638 | 58 | 198 | 4.3 | 7.0 | 0.00 | 0.00 | 0.00 | 63 | 1012.9 |
| 20260505081136 | 58 | 200 | 2.6 | 7.8 | 0.00 | 0.00 | 0.00 | 62 | 1012.7 |
| 20260505080632 | 58 | 157 | 2.6 | 5.2 | 0.00 | 0.00 | 0.00 | 63 | 1012.9 |
| 20260505080128 | 58 | 219 | 2.6 | 2.6 | 0.00 | 0.00 | 0.00 | 65 | 1012.8 |
| 20260505075625 | 57 | 210 | 1.7 | 3.5 | 0.00 | 0.00 | 0.00 | 65 | 1012.7 |
| 20260505075122 | 58 | 210 | 0.9 | 7.0 | 0.00 | 0.00 | 0.00 | 65 | 1012.7 |
| 20260505074619 | 58 | 183 | 1.7 | 7.8 | 0.00 | 0.00 | 0.00 | 65 | 1012.6 |
| 20260505074116 | 57 | 150 | 1.7 | 2.6 | 0.00 | 0.00 | 0.00 | 65 | 1012.7 |
| 20260505073613 | 58 | 164 | 1.7 | 2.6 | 0.00 | 0.00 | 0.00 | 65 | 1012.6 |
| 20260505073112 | 58 | 171 | 1.7 | 6.1 | 0.00 | 0.00 | 0.00 | 64 | 1012.6 |
| 20260505072607 | 58 | 2 | 1.7 | 6.1 | 0.00 | 0.00 | 0.00 | 67 | 1012.6 |
| 20260505072104 | 58 | 130 | 1.7 | 3.5 | 0.00 | 0.00 | 0.00 | 69 | 1012.6 |
| 20260505071559 | 58 | 214 | 1.7 | 3.5 | 0.00 | 0.00 | 0.00 | 70 | 1012.6 |
| 20260505071057 | 60 | 184 | 1.7 | 5.2 | 0.00 | 0.00 | 0.00 | 59 | 1012.8 |
| 20260505070554 | 60 | 228 | 1.7 | 5.2 | 0.00 | 0.00 | 0.00 | 60 | 1012.5 |
| 20260505070050 | 60 | 186 | 3.5 | 7.0 | 0.00 | 0.00 | 0.00 | 57 | 1012.5 |
| 20260505065546 | 60 | 200 | 1.7 | 3.5 | 0.00 | 0.00 | 0.00 | 58 | 1012.4 |
| 20260505065043 | 60 | 210 | 3.5 | 7.0 | 0.00 | 0.00 | 0.00 | 57 | 1012.7 |
| 20260505064540 | 60 | 220 | 1.7 | 6.1 | 0.00 | 0.00 | 0.00 | 59 | 1012.6 |
| 20260505064038 | 60 | 181 | 2.6 | 9.6 | 0.00 | 0.00 | 0.00 | 58 | 1012.4 |
| 20260505063535 | 60 | 53 | 2.6 | 7.8 | 0.00 | 0.00 | 0.00 | 58 | 1012.5 |
| 20260505063031 | 60 | 192 | 5.2 | 6.1 | 0.00 | 0.00 | 0.00 | 61 | 1012.5 |
| 20260505062528 | 60 | 208 | 3.5 | 8.7 | 0.00 | 0.00 | 0.00 | 59 | 1012.6 |
| 20260505062025 | 60 | 195 | 3.5 | 8.7 | 0.00 | 0.00 | 0.00 | 60 | 1012.5 |
| 20260505061523 | 59 | 189 | 1.7 | 3.5 | 0.00 | 0.00 | 0.00 | 62 | 1012.6 |
| 20260505061020 | 59 | 217 | 0.9 | 8.7 | 0.00 | 0.00 | 0.00 | 60 | 1012.5 |
| 20260505060518 | 59 | 183 | 1.7 | 2.6 | 0.00 | 0.00 | 0.00 | 61 | 1012.5 |
| 20260505060014 | 59 | 195 | 0.9 | 3.5 | 0.00 | 0.00 | 0.00 | 61 | 1012.6 |
| 20260505055509 | 58 | 178 | 3.5 | 3.5 | 0.00 | 0.00 | 0.00 | 62 | 1012.6 |
| 20260505055006 | 58 | 132 | 5.2 | 7.8 | 0.00 | 0.00 | 0.00 | 61 | 1012.6 |
| 20260505054504 | 58 | 174 | 2.6 | 9.6 | 0.00 | 0.00 | 0.00 | 59 | 1012.5 |
| 20260505054002 | 58 | 221 | 3.5 | 3.5 | 0.00 | 0.00 | 0.00 | 62 | 1012.4 |
| 20260505053458 | 58 | 213 | 2.6 | 7.8 | 0.00 | 0.00 | 0.00 | 59 | 1012.5 |
| 20260505052955 | 58 | 218 | 2.6 | 7.8 | 0.00 | 0.00 | 0.00 | 61 | 1012.8 |
| 20260505052452 | 58 | 186 | 4.3 | 7.0 | 0.00 | 0.00 | 0.00 | 60 | 1013.0 |
| 20260505051949 | 58 | 312 | 2.6 | 8.7 | 0.00 | 0.00 | 0.00 | 59 | 1012.8 |
| 20260505051446 | 58 | 224 | 1.7 | 7.8 | 0.00 | 0.00 | 0.00 | 60 | 1012.8 |
| 20260505050944 | 59 | 217 | 1.7 | 3.5 | 0.00 | 0.00 | 0.00 | 61 | 1012.8 |
| 20260505050442 | 58 | 180 | 2.6 | 3.5 | 0.00 | 0.00 | 0.00 | 60 | 1012.9 |
| 20260505041410 | 60 | 168 | 5.2 | 11.3 | 0.00 | 0.00 | 0.00 | 59 | 1012.7 |
| 20260505040907 | 59 | 213 | 4.3 | 7.8 | 0.00 | 0.00 | 0.00 | 61 | 1012.8 |
| 20260505040405 | 59 | 224 | 3.5 | 7.8 | 0.00 | 0.00 | 0.00 | 61 | 1012.9 |
| 20260505035901 | 59 | 152 | 8.7 | 11.3 | 0.00 | 0.00 | 0.00 | 60 | 1012.9 |
| 20260505035357 | 58 | 190 | 2.6 | 7.8 | 0.00 | 0.00 | 0.00 | 62 | 1012.5 |
| 20260505034855 | 59 | 207 | 1.7 | 6.1 | 0.00 | 0.00 | 0.00 | 61 | 1012.6 |
| 20260505034351 | 59 | 190 | 1.7 | 7.0 | 0.00 | 0.00 | 0.00 | 61 | 1012.7 |
| 20260505033848 | 60 | 201 | 2.6 | 8.7 | 0.00 | 0.00 | 0.00 | 60 | 1012.8 |
| 20260505033345 | 59 | 198 | 3.5 | 7.0 | 0.00 | 0.00 | 0.00 | 62 | 1012.7 |
| 20260505032843 | 59 | 154 | 3.5 | 11.3 | 0.00 | 0.00 | 0.00 | 60 | 1012.7 |
| 20260505032339 | 59 | 169 | 3.5 | 7.0 | 0.00 | 0.00 | 0.00 | 61 | 1012.6 |
| 20260505031836 | 59 | 207 | 5.2 | 7.0 | 0.00 | 0.00 | 0.00 | 62 | 1012.8 |
| 20260505031333 | 59 | 145 | 1.7 | 8.7 | 0.00 | 0.00 | 0.00 | 61 | 1012.8 |
| 20260505030830 | 59 | 207 | 4.3 | 7.8 | 0.00 | 0.00 | 0.00 | 61 | 1012.9 |
| 20260505030326 | 59 | 208 | 4.3 | 6.1 | 0.00 | 0.00 | 0.00 | 62 | 1012.8 |
| 20260505025822 | 59 | 181 | 0.9 | 6.1 | 0.00 | 0.00 | 0.00 | 62 | 1012.9 |
| 20260505025320 | 59 | 214 | 3.5 | 9.6 | 0.00 | 0.00 | 0.00 | 61 | 1012.9 |
| 20260505024818 | 59 | 205 | 2.6 | 5.2 | 0.00 | 0.00 | 0.00 | 62 | 1012.9 |
| 20260505024315 | 59 | 182 | 4.3 | 7.8 | 0.00 | 0.00 | 0.00 | 63 | 1013.0 |
| 20260505023812 | 59 | 161 | 4.3 | 7.0 | 0.00 | 0.00 | 0.00 | 63 | 1013.1 |
| 20260505023309 | 58 | 228 | 5.2 | 7.0 | 0.00 | 0.00 | 0.00 | 64 | 1013.1 |
| 20260505022806 | 58 | 210 | 3.5 | 3.5 | 0.00 | 0.00 | 0.00 | 65 | 1013.0 |
| 20260505022304 | 58 | 194 | 4.3 | 7.0 | 0.00 | 0.00 | 0.00 | 65 | 1013.1 |
| 20260505021800 | 58 | 217 | 0.9 | 5.2 | 0.00 | 0.00 | 0.00 | 65 | 1013.0 |
| 20260505021257 | 58 | 199 | 1.7 | 2.6 | 0.00 | 0.00 | 0.00 | 67 | 1013.0 |
| 20260505020753 | 58 | 221 | 0.9 | 1.7 | 0.00 | 0.00 | 0.00 | 66 | 1012.9 |
| 20260505020248 | 58 | 226 | 0.9 | 3.5 | 0.00 | 0.00 | 0.00 | 65 | 1013.1 |
| 20260505015746 | 58 | 170 | 3.5 | 7.8 | 0.00 | 0.00 | 0.00 | 64 | 1013.0 |
| 20260505015242 | 58 | 210 | 1.7 | 2.6 | 0.00 | 0.00 | 0.00 | 67 | 1013.2 |
| 20260505014740 | 57 | 132 | 0.9 | 3.5 | 0.00 | 0.00 | 0.00 | 67 | 1013.1 |
| 20260505014237 | 58 | 250 | 0.9 | 3.5 | 0.00 | 0.00 | 0.00 | 67 | 1013.3 |
| 20260505013733 | 58 | 201 | 1.7 | 2.6 | 0.00 | 0.00 | 0.00 | 67 | 1013.1 |
| 20260505013231 | 58 | 208 | 1.7 | 5.2 | 0.00 | 0.00 | 0.00 | 66 | 1013.0 |
| 20260505012729 | 58 | 226 | 1.7 | 2.6 | 0.00 | 0.00 | 0.00 | 67 | 1013.1 |
| 20260505012226 | 58 | 211 | 0.9 | 2.6 | 0.00 | 0.00 | 0.00 | 66 | 1013.3 |
| 20260505011721 | 57 | 112 | 2.6 | 3.5 | 0.00 | 0.00 | 0.00 | 65 | 1013.0 |
| 20260505011219 | 57 | 179 | 1.7 | 1.7 | 0.00 | 0.00 | 0.00 | 68 | 1012.9 |
| 20260505010714 | 58 | 187 | 1.7 | 2.6 | 0.00 | 0.00 | 0.00 | 68 | 1013.0 |
| 20260505010211 | 58 | 171 | 0.9 | 2.6 | 0.00 | 0.00 | 0.00 | 67 | 1012.9 |
| 20260505005707 | 58 | 229 | 0.0 | 1.7 | 0.00 | 0.00 | 0.00 | 66 | 1012.6 |
| 20260505005205 | 59 | 216 | 0.9 | 5.2 | 0.00 | 0.00 | 0.00 | 64 | 1012.6 |
| 20260505004702 | 59 | 193 | 2.6 | 3.5 | 0.00 | 0.00 | 0.00 | 65 | 1012.6 |
| 20260505004158 | 59 | 203 | 0.9 | 1.7 | 0.00 | 0.00 | 0.00 | 65 | 1012.6 |
| 20260505003655 | 59 | 201 | 0.9 | 2.6 | 0.00 | 0.00 | 0.00 | 66 | 1012.8 |
| 20260505003153 | 59 | 228 | 0.9 | 2.6 | 0.00 | 0.00 | 0.00 | 66 | 1012.7 |
| 20260505002649 | 59 | 209 | 0.9 | 5.2 | 0.00 | 0.00 | 0.00 | 64 | 1012.6 |
| 20260505002147 | 59 | 125 | 0.9 | 2.6 | 0.00 | 0.00 | 0.00 | 65 | 1012.4 |
| 20260505001644 | 58 | 209 | 1.7 | 2.6 | 0.00 | 0.00 | 0.00 | 66 | 1012.6 |
| 20260505001141 | 59 | 161 | 2.6 | 3.5 | 0.00 | 0.00 | 0.00 | 65 | 1012.8 |
| 20260505000638 | 59 | 217 | 1.7 | 2.6 | 0.00 | 0.00 | 0.00 | 65 | 1012.5 |
| 20260505000137 | 60 | 214 | 2.6 | 5.2 | 0.00 | 0.00 | 0.00 | 63 | 1012.6 |
| 20260504235632 | 60 | 216 | 2.6 | 2.6 | 0.00 | 0.00 | 0.00 | 61 | 1012.4 |
| 20260504235129 | 60 | 195 | 0.9 | 1.7 | 0.00 | 0.00 | 0.00 | 64 | 1012.1 |
| 20260504234626 | 60 | 182 | 4.3 | 6.1 | 0.00 | 0.00 | 0.00 | 60 | 1012.3 |
| 20260504234123 | 60 | 155 | 1.7 | 5.2 | 0.00 | 0.00 | 0.00 | 61 | 1012.0 |
| 20260504233619 | 60 | 197 | 2.6 | 3.5 | 0.00 | 0.00 | 0.00 | 62 | 1012.4 |
| 20260504233115 | 61 | 172 | 2.6 | 3.5 | 0.00 | 0.00 | 0.00 | 61 | 1012.3 |
| 20260504232613 | 62 | 180 | 1.7 | 3.5 | 0.00 | 0.00 | 0.00 | 60 | 1012.0 |
| 20260504232110 | 62 | 219 | 1.7 | 8.7 | 0.00 | 0.00 | 0.00 | 60 | 1012.0 |
| 20260504231606 | 61 | 199 | 2.6 | 3.5 | 0.00 | 0.00 | 0.00 | 61 | 1012.0 |
| 20260504231102 | 62 | 170 | 2.6 | 7.0 | 0.00 | 0.00 | 0.00 | 59 | 1012.3 |
| 20260504230558 | 62 | 203 | 1.7 | 3.5 | 0.00 | 0.00 | 0.00 | 58 | 1012.3 |
| 20260504230058 | 62 | 242 | 5.2 | 7.0 | 0.00 | 0.00 | 0.00 | 57 | 1012.4 |
| 20260504225555 | 61 | 97 | 2.6 | 3.5 | 0.00 | 0.00 | 0.00 | 58 | 1012.5 |
| 20260504225052 | 61 | 174 | 4.3 | 9.6 | 0.00 | 0.00 | 0.00 | 58 | 1012.3 |
| 20260504224548 | 62 | 228 | 1.7 | 6.1 | 0.00 | 0.00 | 0.00 | 58 | 1012.5 |
| 20260504224046 | 62 | 231 | 11.3 | 20.9 | 0.00 | 0.00 | 0.00 | 58 | 1012.5 |
| 20260504223542 | 62 | 190 | 2.6 | 3.5 | 0.00 | 0.00 | 0.00 | 60 | 1012.1 |
| 20260504223038 | 62 | 141 | 3.5 | 3.5 | 0.00 | 0.00 | 0.00 | 58 | 1012.1 |
| 20260504222535 | 62 | 173 | 4.3 | 8.7 | 0.00 | 0.00 | 0.00 | 57 | 1012.1 |
| 20260504222032 | 63 | 89 | 2.6 | 9.6 | 0.00 | 0.00 | 0.00 | 56 | 1012.3 |
| 20260504221530 | 63 | 153 | 5.2 | 7.0 | 0.00 | 0.00 | 0.00 | 55 | 1012.5 |
| 20260504221026 | 63 | 188 | 3.5 | 6.1 | 0.00 | 0.00 | 0.00 | 58 | 1012.1 |
| 20260504220523 | 63 | 177 | 2.6 | 3.5 | 0.00 | 0.00 | 0.00 | 61 | 1012.3 |
| 20260504220020 | 64 | 226 | 0.0 | 11.3 | 0.00 | 0.00 | 0.00 | 58 | 1012.0 |
| 20260504215516 | 64 | 202 | 3.5 | 9.6 | 0.00 | 0.00 | 0.00 | 57 | 1012.1 |
| 20260504215014 | 65 | 288 | 5.2 | 7.8 | 0.00 | 0.00 | 0.00 | 56 | 1012.0 |
| 20260504214510 | 64 | 183 | 3.5 | 6.1 | 0.00 | 0.00 | 0.00 | 56 | 1012.3 |
| 20260504214006 | 65 | 219 | 6.1 | 9.6 | 0.00 | 0.00 | 0.00 | 54 | 1012.3 |
| 20260504213502 | 64 | 152 | 5.2 | 7.0 | 0.00 | 0.00 | 0.00 | 57 | 1012.1 |
| 20260504213000 | 63 | 207 | 3.5 | 7.0 | 0.00 | 0.00 | 0.00 | 55 | 1012.1 |
| 20260504212455 | 63 | 165 | 2.6 | 5.2 | 0.00 | 0.00 | 0.00 | 54 | 1012.1 |
| 20260504211953 | 64 | 247 | 0.9 | 7.0 | 0.00 | 0.00 | 0.00 | 56 | 1012.0 |
| 20260504211449 | 65 | 229 | 0.9 | 5.2 | 0.00 | 0.00 | 0.00 | 54 | 1012.0 |
| 20260504210947 | 65 | 240 | 0.0 | 7.0 | 0.00 | 0.00 | 0.00 | 52 | 1012.1 |
| 20260504210444 | 66 | 200 | 2.6 | 6.1 | 0.00 | 0.00 | 0.00 | 52 | 1012.0 |
| 20260504205941 | 66 | 131 | 3.5 | 5.2 | 0.00 | 0.00 | 0.00 | 49 | 1011.9 |
| 20260504205438 | 67 | 183 | 4.3 | 7.8 | 0.00 | 0.00 | 0.00 | 55 | 1011.8 |
| 20260504204936 | 65 | 263 | 2.6 | 7.0 | 0.00 | 0.00 | 0.00 | 55 | 1011.9 |
| 20260504204434 | 65 | 247 | 3.5 | 5.2 | 0.00 | 0.00 | 0.00 | 54 | 1012.0 |
| 20260504203933 | 64 | 221 | 5.2 | 7.8 | 0.00 | 0.00 | 0.00 | 55 | 1012.0 |
| 20260504203431 | 67 | 133 | 4.3 | 7.0 | 0.00 | 0.00 | 0.00 | 50 | 1011.8 |
| 20260504202927 | 67 | 166 | 5.2 | 7.8 | 0.00 | 0.00 | 0.00 | 49 | 1011.9 |
| 20260504202423 | 68 | 215 | 1.7 | 6.1 | 0.00 | 0.00 | 0.00 | 51 | 1011.9 |
| 20260504201920 | 66 | 121 | 3.5 | 7.8 | 0.00 | 0.00 | 0.00 | 51 | 1011.7 |
| 20260504201418 | 65 | 151 | 2.6 | 5.2 | 0.00 | 0.00 | 0.00 | 49 | 1011.8 |
| 20260504200915 | 66 | 191 | 3.5 | 3.5 | 0.00 | 0.00 | 0.00 | 50 | 1011.8 |
| 20260504200411 | 65 | 163 | 5.2 | 14.8 | 0.00 | 0.00 | 0.00 | 47 | 1011.7 |
| 20260504195908 | 67 | 178 | 3.5 | 6.1 | 0.00 | 0.00 | 0.00 | 52 | 1012.3 |
| 20260504195404 | 68 | 175 | 3.5 | 5.2 | 0.00 | 0.00 | 0.00 | 56 | 1012.0 |
| 20260504194901 | 68 | 97 | 4.3 | 6.1 | 0.00 | 0.00 | 0.00 | 51 | 1011.9 |
| 20260504194356 | 65 | 166 | 6.1 | 13.0 | 0.00 | 0.00 | 0.00 | 51 | 1012.1 |
| 20260504193853 | 65 | 220 | 3.5 | 9.6 | 0.00 | 0.00 | 0.00 | 54 | 1012.3 |
| 20260504193350 | 66 | 114 | 2.6 | 3.5 | 0.00 | 0.00 | 0.00 | 48 | 1012.4 |
| 20260504192849 | 65 | 75 | 2.6 | 8.7 | 0.00 | 0.00 | 0.00 | 53 | 1012.4 |
| 20260504192346 | 66 | 247 | 2.6 | 6.1 | 0.00 | 0.00 | 0.00 | 52 | 1012.7 |
| 20260504191844 | 66 | 220 | 1.7 | 3.5 | 0.00 | 0.00 | 0.00 | 52 | 1012.7 |
| 20260504191342 | 67 | 216 | 3.5 | 7.8 | 0.00 | 0.00 | 0.00 | 54 | 1012.6 |
| 20260504190837 | 67 | 235 | 2.6 | 3.5 | 0.00 | 0.00 | 0.00 | 55 | 1012.8 |
| 20260504190333 | 67 | 172 | 1.7 | 3.5 | 0.00 | 0.00 | 0.00 | 54 | 1012.5 |
| 20260504185830 | 66 | 212 | 2.6 | 5.2 | 0.00 | 0.00 | 0.00 | 56 | 1012.5 |
| 20260504185327 | 64 | 176 | 4.3 | 12.2 | 0.00 | 0.00 | 0.00 | 55 | 1012.6 |
| 20260504184823 | 64 | 178 | 3.5 | 11.3 | 0.00 | 0.00 | 0.00 | 56 | 1012.8 |
| 20260504184319 | 65 | 268 | 9.6 | 14.8 | 0.00 | 0.00 | 0.00 | 54 | 1012.7 |
| 20260504183815 | 66 | 220 | 3.5 | 3.5 | 0.00 | 0.00 | 0.00 | 54 | 1012.7 |
| 20260504183312 | 66 | 91 | 3.5 | 7.8 | 0.00 | 0.00 | 0.00 | 54 | 1012.8 |
| 20260504182810 | 64 | 204 | 3.5 | 7.0 | 0.00 | 0.00 | 0.00 | 58 | 1012.6 |
| 20260504182307 | 65 | 138 | 7.0 | 7.8 | 0.00 | 0.00 | 0.00 | 57 | 1012.8 |
| 20260504181804 | 64 | 230 | 1.7 | 11.3 | 0.00 | 0.00 | 0.00 | 59 | 1012.9 |
| 20260504181301 | 64 | 204 | 4.3 | 6.1 | 0.00 | 0.00 | 0.00 | 64 | 1012.8 |
| 20260504180801 | 63 | 206 | 2.6 | 8.7 | 0.00 | 0.00 | 0.00 | 63 | 1013.1 |
| 20260504180259 | 64 | 140 | 5.2 | 8.7 | 0.00 | 0.00 | 0.00 | 61 | 1013.1 |
| 20260504175756 | 64 | 159 | 6.1 | 7.0 | 0.00 | 0.00 | 0.00 | 57 | 1013.0 |
| 20260504175253 | 62 | 171 | 3.5 | 11.3 | 0.00 | 0.00 | 0.00 | 63 | 1013.2 |
| 20260504174751 | 61 | 207 | 1.7 | 5.2 | 0.00 | 0.00 | 0.00 | 60 | 1013.1 |
| 20260504174249 | 62 | 149 | 3.5 | 9.6 | 0.00 | 0.00 | 0.00 | 61 | 1013.4 |
| 20260504173745 | 62 | 235 | 3.5 | 8.7 | 0.00 | 0.00 | 0.00 | 62 | 1013.2 |
| 20260504173242 | 62 | 217 | 5.2 | 8.7 | 0.00 | 0.00 | 0.00 | 56 | 1013.2 |
| 20260504172738 | 63 | 140 | 3.5 | 6.1 | 0.00 | 0.00 | 0.00 | 56 | 1013.0 |
| 20260504172235 | 65 | 144 | 3.5 | 7.8 | 0.00 | 0.00 | 0.00 | 56 | 1013.2 |
| 20260504171731 | 65 | 216 | 1.7 | 5.2 | 0.00 | 0.00 | 0.00 | 56 | 1013.0 |
| 20260504171228 | 64 | 228 | 1.7 | 5.2 | 0.00 | 0.00 | 0.00 | 54 | 1013.6 |
| 20260504170725 | 61 | 89 | 1.7 | 8.7 | 0.00 | 0.00 | 0.00 | 57 | 1013.6 |
| 20260504170223 | 61 | 262 | 3.5 | 9.6 | 0.00 | 0.00 | 0.00 | 56 | 1013.4 |
| 20260504160141 | 62 | 158 | 7.0 | 7.8 | 0.00 | 0.00 | 0.00 | 54 | 1014.2 |
| 20260504151108 | 62 | 194 | 2.6 | 9.6 | 0.00 | 0.00 | 0.00 | 51 | 1014.6 |
| 20260504150606 | 62 | 71 | 1.7 | 2.6 | 0.00 | 0.00 | 0.00 | 47 | 1014.5 |
| 20260504141032 | 58 | 146 | 4.3 | 7.0 | 0.00 | 0.00 | 0.00 | 50 | 1014.3 |
| 20260504140528 | 58 | 206 | 1.7 | 2.6 | 0.00 | 0.00 | 0.00 | 51 | 1014.3 |
| 20260504130453 | 51 | 140 | 7.0 | 8.7 | 0.00 | 0.00 | 0.00 | 58 | 1014.9 |